CSN3425 ZLLL-ZBHH

Flight info

Callsign CSN3425
Flight time 1h 15m
Altitude 33100
Route ADPUX W211 ZWX W219 YHD W217 VIKON W72 OMGEL W64 VALNI
Aircraft B738/M-SADE2E3FGHIJ3J5LM1ORVWY/HB1

Departure

Time 2026-05-06 13:35
Airport Lanzhou Zhongchuan International Airport (ZLLL)

Arrival

Time 2026-05-06 14:51
Airport Hohhot Baita International Airport (ZBHH)
Time Latitude Longitude Altitude Speed Heading
2026-05-06 13:07 36.50749 103.61726 6397 ft 0 kts 303°
2026-05-06 13:23 36.50749 103.61727 6397 ft 2 kts 303°
2026-05-06 13:23 36.50738 103.61747 6397 ft 3 kts 306°
2026-05-06 13:23 36.50727 103.61768 6397 ft 3 kts 293°
2026-05-06 13:24 36.50723 103.61789 6397 ft 1 kts 266°
2026-05-06 13:24 36.50722 103.61809 6397 ft 3 kts 299°
2026-05-06 13:24 36.50712 103.61820 6397 ft 3 kts 355°
2026-05-06 13:24 36.50692 103.61821 6397 ft 3 kts 358°
2026-05-06 13:25 36.50675 103.61822 6397 ft 3 kts 355°
2026-05-06 13:25 36.50657 103.61826 6397 ft 3 kts 324°
2026-05-06 13:25 36.50650 103.61837 6397 ft 2 kts 267°
2026-05-06 13:25 36.50651 103.61862 6397 ft 3 kts 267°
2026-05-06 13:26 36.50652 103.61887 6397 ft 3 kts 267°
2026-05-06 13:26 36.50653 103.61904 6397 ft 0 kts 267°
2026-05-06 13:28 36.50652 103.61891 6397 ft 7 kts 267°
2026-05-06 13:28 36.50635 103.61831 6397 ft 4 kts 204°
2026-05-06 13:28 36.50602 103.61826 6397 ft 8 kts 178°
2026-05-06 13:29 36.50575 103.61827 6397 ft 5 kts 177°
2026-05-06 13:29 36.50523 103.61831 6397 ft 7 kts 176°
2026-05-06 13:29 36.50482 103.61834 6397 ft 5 kts 178°
2026-05-06 13:29 36.50411 103.61838 6397 ft 14 kts 177°
2026-05-06 13:30 36.50284 103.61847 6397 ft 23 kts 177°
2026-05-06 13:30 36.50123 103.61856 6397 ft 23 kts 177°
2026-05-06 13:30 36.49978 103.61865 6397 ft 18 kts 177°
2026-05-06 13:30 36.49907 103.61915 6397 ft 11 kts 87°
2026-05-06 13:31 36.49868 103.61975 6397 ft 11 kts 176°
2026-05-06 13:31 36.49788 103.61980 6397 ft 12 kts 177°
2026-05-06 13:31 36.49698 103.61985 6397 ft 13 kts 177°
2026-05-06 13:31 36.49629 103.61990 6397 ft 8 kts 176°
2026-05-06 13:32 36.49595 103.61992 6397 ft 2 kts 176°
2026-05-06 13:32 36.49567 103.61995 6397 ft 4 kts 167°
2026-05-06 13:32 36.49555 103.62037 6397 ft 7 kts 93°
2026-05-06 13:32 36.49555 103.62115 6397 ft 9 kts 87°
2026-05-06 13:33 36.49557 103.62171 6397 ft 3 kts 87°
2026-05-06 13:33 36.49563 103.62195 6397 ft 3 kts 33°
2026-05-06 13:33 36.49579 103.62201 6397 ft 0 kts 359°
2026-05-06 13:33 36.49581 103.62200 6397 ft 0 kts 357°
2026-05-06 13:34 36.49585 103.62200 6397 ft 3 kts 357°
2026-05-06 13:34 36.49696 103.62194 6397 ft 40 kts 357°
2026-05-06 13:34 36.50183 103.62163 6397 ft 98 kts 357°
2026-05-06 13:34 36.51043 103.62109 6397 ft 148 kts 356°
2026-05-06 13:35 36.52210 103.62039 6525 ft 179 kts 358°
2026-05-06 13:35 36.53459 103.61962 7195 ft 181 kts 358°
2026-05-06 13:35 36.54737 103.61878 7783 ft 192 kts 358°
2026-05-06 13:35 36.56163 103.61781 8082 ft 218 kts 358°
2026-05-06 13:36 36.57963 103.61631 8629 ft 237 kts 357°
2026-05-06 13:36 36.59658 103.61447 9187 ft 253 kts 358°
2026-05-06 13:36 36.61476 103.61338 9734 ft 267 kts
2026-05-06 13:36 36.63349 103.61302 10572 ft 272 kts
2026-05-06 13:37 36.65247 103.61456 11414 ft 275 kts
2026-05-06 13:37 36.67157 103.61414 12300 ft 276 kts 358°
2026-05-06 13:37 36.69086 103.61218 13101 ft 280 kts 356°
2026-05-06 13:37 36.71037 103.60991 13923 ft 283 kts 355°
2026-05-06 13:38 36.73009 103.60760 14676 ft 286 kts 355°
2026-05-06 13:38 36.75004 103.60554 15459 ft 289 kts 357°
2026-05-06 13:38 36.77021 103.60447 16240 ft 291 kts 357°
2026-05-06 13:38 36.79055 103.60338 16985 ft 294 kts 356°
2026-05-06 13:39 36.81106 103.60216 17709 ft 297 kts 356°
2026-05-06 13:39 36.83199 103.60324 18209 ft 310 kts 10°
2026-05-06 13:39 36.85256 103.61381 18477 ft 333 kts 30°
2026-05-06 13:39 36.87007 103.63413 18722 ft 358 kts 50°
2026-05-06 13:40 36.88197 103.66231 19016 ft 379 kts 69°
2026-05-06 13:40 36.88646 103.69536 19459 ft 393 kts 87°
2026-05-06 13:40 36.88326 103.72960 20020 ft 402 kts 99°
2026-05-06 13:40 36.88031 103.76437 20573 ft 405 kts 86°
2026-05-06 13:41 36.88498 103.79903 21085 ft 407 kts 71°
2026-05-06 13:41 36.89282 103.83283 21582 ft 414 kts 74°
2026-05-06 13:41 36.89870 103.86883 22088 ft 421 kts 79°
2026-05-06 13:41 36.90255 103.90475 22570 ft 426 kts 79°
2026-05-06 13:42 36.90796 103.94134 23036 ft 431 kts 77°
2026-05-06 13:42 36.91401 103.97823 23497 ft 436 kts 77°
2026-05-06 13:42 36.91982 104.01562 23935 ft 442 kts 77°
2026-05-06 13:42 36.92553 104.05363 24348 ft 447 kts 77°
2026-05-06 13:43 36.93121 104.09194 24833 ft 450 kts 77°
2026-05-06 13:43 36.93689 104.13057 25290 ft 454 kts 77°
2026-05-06 13:43 36.94263 104.16958 25738 ft 458 kts 77°
2026-05-06 13:43 36.95010 104.20822 26152 ft 459 kts 69°
2026-05-06 13:44 36.96257 104.24480 26570 ft 457 kts 58°
2026-05-06 13:44 36.97953 104.27838 26975 ft 456 kts 50°
2026-05-06 13:44 36.99934 104.30923 27381 ft 456 kts 44°
2026-05-06 13:44 37.02084 104.33845 27775 ft 457 kts 41°
2026-05-06 13:45 37.04264 104.36767 28193 ft 460 kts 42°
2026-05-06 13:45 37.08569 104.42782 28925 ft 467 kts 43°
2026-05-06 13:45 37.10727 104.45843 29294 ft 470 kts 43°
2026-05-06 13:46 37.12892 104.48925 29647 ft 473 kts 43°
2026-05-06 13:46 37.15068 104.52026 29977 ft 476 kts 43°
2026-05-06 13:46 37.17259 104.55150 30312 ft 478 kts 43°
2026-05-06 13:46 37.19465 104.58294 30640 ft 481 kts 43°
2026-05-06 13:47 37.21676 104.61453 31007 ft 482 kts 43°
2026-05-06 13:47 37.23894 104.64615 31364 ft 484 kts 43°
2026-05-06 13:47 37.26115 104.67798 31703 ft 486 kts 43°
2026-05-06 13:47 37.28343 104.70998 32057 ft 487 kts 43°
2026-05-06 13:48 37.29816 104.73111 32277 ft 488 kts 42°
2026-05-06 13:48 37.32056 104.76334 32571 ft 490 kts 43°
2026-05-06 13:48 37.34299 104.79556 32914 ft 491 kts 42°
2026-05-06 13:48 37.36552 104.82783 33260 ft 491 kts 42°
2026-05-06 13:49 37.38830 104.86017 33379 ft 497 kts 42°
2026-05-06 13:49 37.41119 104.89301 33389 ft 500 kts 42°
2026-05-06 13:49 37.45675 104.95877 33390 ft 497 kts 42°
2026-05-06 13:50 37.50220 105.02459 33388 ft 497 kts 43°
2026-05-06 13:50 37.54756 105.09034 33385 ft 497 kts 42°
2026-05-06 13:51 37.59263 105.15729 33383 ft 499 kts 45°
2026-05-06 13:51 37.63451 105.22665 33380 ft 500 kts 46°
2026-05-06 13:52 37.67702 105.29610 33378 ft 500 kts 46°
2026-05-06 13:52 37.71942 105.36563 33375 ft 500 kts 46°
2026-05-06 13:53 37.76179 105.43527 33372 ft 500 kts 46°
2026-05-06 13:53 37.80421 105.50498 33369 ft 500 kts 46°
2026-05-06 13:54 37.84654 105.57477 33367 ft 500 kts 46°
2026-05-06 13:54 37.88878 105.64462 33365 ft 500 kts 46°
2026-05-06 13:55 37.93099 105.71462 33362 ft 500 kts 46°
2026-05-06 13:55 37.97312 105.78466 33359 ft 500 kts 46°
2026-05-06 13:56 38.01526 105.85485 33357 ft 500 kts 46°
2026-05-06 13:56 38.05763 105.92476 33355 ft 499 kts 45°
2026-05-06 13:57 38.09978 105.99471 33352 ft 499 kts 46°
2026-05-06 13:57 38.14179 106.06482 33350 ft 499 kts 46°
2026-05-06 13:58 38.18403 106.13496 33348 ft 499 kts 46°
2026-05-06 13:58 38.22567 106.20484 33346 ft 499 kts 46°
2026-05-06 13:59 38.26750 106.27541 33344 ft 499 kts 46°
2026-05-06 13:59 38.30935 106.34616 33342 ft 500 kts 46°
2026-05-06 14:00 38.34676 106.42142 33340 ft 509 kts 58°
2026-05-06 14:00 38.37164 106.50625 33340 ft 515 kts 71°
2026-05-06 14:01 38.39042 106.59447 33334 ft 514 kts 68°
2026-05-06 14:01 38.41989 106.67635 33334 ft 503 kts 52°
2026-05-06 14:02 38.46222 106.74636 33334 ft 495 kts 40°
2026-05-06 14:02 38.50888 106.81090 33335 ft 495 kts 40°
2026-05-06 14:03 38.55464 106.87636 33335 ft 495 kts 40°
2026-05-06 14:03 38.60009 106.94242 33334 ft 495 kts 40°
2026-05-06 14:04 38.64566 107.00871 33333 ft 495 kts 40°
2026-05-06 14:04 38.69123 107.07486 33333 ft 496 kts 40°
2026-05-06 14:05 38.73636 107.14088 33332 ft 495 kts 40°
2026-05-06 14:05 38.78191 107.20727 33331 ft 496 kts 40°
2026-05-06 14:06 38.82717 107.27398 33331 ft 496 kts 41°
2026-05-06 14:06 38.87233 107.34081 33331 ft 496 kts 41°
2026-05-06 14:07 38.91753 107.40780 33331 ft 496 kts 41°
2026-05-06 14:07 38.96274 107.47481 33331 ft 496 kts 40°
2026-05-06 14:08 39.00793 107.54172 33331 ft 496 kts 41°
2026-05-06 14:08 39.05303 107.60894 33331 ft 496 kts 41°
2026-05-06 14:09 39.09816 107.67633 33331 ft 497 kts 41°
2026-05-06 14:09 39.14328 107.74366 33331 ft 496 kts 41°
2026-05-06 14:10 39.18828 107.81125 33331 ft 496 kts 41°
2026-05-06 14:10 39.23321 107.87881 33332 ft 496 kts 41°
2026-05-06 14:11 39.27784 107.94604 33320 ft 497 kts 41°
2026-05-06 14:11 39.32297 108.01419 33313 ft 496 kts 41°
2026-05-06 14:12 39.36793 108.08128 33312 ft 498 kts 41°
2026-05-06 14:12 39.41287 108.14934 33312 ft 498 kts 41°
2026-05-06 14:13 39.45773 108.21759 33311 ft 498 kts 41°
2026-05-06 14:13 39.50253 108.28587 33311 ft 498 kts 41°
2026-05-06 14:14 39.54687 108.35499 33310 ft 501 kts 45°
2026-05-06 14:14 39.58752 108.42862 33311 ft 504 kts 47°
2026-05-06 14:15 39.62772 108.50296 33311 ft 503 kts 47°
2026-05-06 14:15 39.66815 108.57703 33311 ft 503 kts 47°
2026-05-06 14:16 39.70863 108.65107 33311 ft 502 kts 47°
2026-05-06 14:16 39.74931 108.72492 33312 ft 503 kts 46°
2026-05-06 14:17 39.79018 108.79877 33300 ft 503 kts 47°
2026-05-06 14:17 39.83083 108.87284 33286 ft 503 kts 47°
2026-05-06 14:18 39.87137 108.94704 33285 ft 503 kts 47°
2026-05-06 14:18 39.91182 109.02129 33288 ft 504 kts 47°
2026-05-06 14:19 39.95230 109.09582 33290 ft 504 kts 47°
2026-05-06 14:19 39.99247 109.16994 33293 ft 503 kts 47°
2026-05-06 14:20 40.03274 109.24443 33295 ft 502 kts 48°
2026-05-06 14:20 40.07304 109.31915 33298 ft 503 kts 48°
2026-05-06 14:21 40.11329 109.39396 33301 ft 503 kts 48°
2026-05-06 14:21 40.15342 109.46872 33304 ft 503 kts 48°
2026-05-06 14:22 40.19353 109.54363 33307 ft 503 kts 49°
2026-05-06 14:22 40.23366 109.61875 33309 ft 503 kts 49°
2026-05-06 14:23 40.27398 109.69371 33312 ft 503 kts 49°
2026-05-06 14:23 40.31396 109.76901 33315 ft 503 kts 49°
2026-05-06 14:24 40.35385 109.84450 33318 ft 504 kts 49°
2026-05-06 14:24 40.39347 109.92026 33316 ft 506 kts 52°
2026-05-06 14:25 40.40951 109.96174 33316 ft 514 kts 63°
2026-05-06 14:25 40.42015 110.00665 33319 ft 518 kts 74°
2026-05-06 14:25 40.42513 110.05346 33314 ft 519 kts 86°
2026-05-06 14:25 40.42358 110.10069 33337 ft 518 kts 95°
2026-05-06 14:26 40.42134 110.19547 33335 ft 520 kts 90°
2026-05-06 14:26 40.42104 110.28969 33331 ft 519 kts 91°
2026-05-06 14:27 40.42007 110.38439 33345 ft 519 kts 91°
2026-05-06 14:27 40.41913 110.47917 33360 ft 519 kts 91°
2026-05-06 14:28 40.41814 110.57440 33367 ft 518 kts 91°
2026-05-06 14:28 40.41715 110.66756 33366 ft 505 kts 91°
2026-05-06 14:29 40.41699 110.71292 33363 ft 489 kts 91°
2026-05-06 14:29 40.41672 110.75692 33360 ft 476 kts 91°
2026-05-06 14:29 40.41635 110.79975 33358 ft 463 kts 91°
2026-05-06 14:29 40.41593 110.84141 33356 ft 451 kts 91°
2026-05-06 14:30 40.41557 110.88197 33353 ft 439 kts 91°
2026-05-06 14:30 40.41535 110.92172 33361 ft 435 kts 91°
2026-05-06 14:30 40.41445 111.00156 33376 ft 441 kts 92°
2026-05-06 14:31 40.41329 111.08226 33379 ft 443 kts 92°
2026-05-06 14:31 40.41206 111.16292 33342 ft 442 kts 92°
2026-05-06 14:32 40.41143 111.20332 32904 ft 443 kts 92°
2026-05-06 14:32 40.41102 111.23013 32310 ft 448 kts 92°
2026-05-06 14:32 40.41016 111.28532 31076 ft 456 kts 92°
2026-05-06 14:32 40.40977 111.31299 30448 ft 460 kts 91°
2026-05-06 14:33 40.40939 111.35520 29498 ft 464 kts 91°
2026-05-06 14:33 40.40891 111.39816 28536 ft 466 kts 91°
2026-05-06 14:33 40.41189 111.45429 27274 ft 465 kts 80°
2026-05-06 14:33 40.41616 111.48177 26644 ft 463 kts 74°
2026-05-06 14:34 40.42572 111.52187 25694 ft 458 kts 66°
2026-05-06 14:34 40.43814 111.56006 24745 ft 452 kts 60°
2026-05-06 14:34 40.45211 111.59677 23795 ft 446 kts 58°
2026-05-06 14:34 40.46595 111.63290 22844 ft 439 kts 59°
2026-05-06 14:35 40.47913 111.66875 21892 ft 432 kts 59°
2026-05-06 14:35 40.49196 111.70401 20942 ft 424 kts 59°
2026-05-06 14:35 40.50472 111.73907 20332 ft 425 kts 60°
2026-05-06 14:35 40.51704 111.77381 20084 ft 415 kts 60°
2026-05-06 14:36 40.52900 111.80796 19810 ft 408 kts 60°
2026-05-06 14:36 40.54077 111.84173 19397 ft 404 kts 60°
2026-05-06 14:36 40.55242 111.87525 18977 ft 401 kts 60°
2026-05-06 14:36 40.56394 111.90848 18554 ft 398 kts 60°
2026-05-06 14:37 40.57536 111.94147 18131 ft 395 kts 60°
2026-05-06 14:37 40.58673 111.97432 17710 ft 392 kts 60°
2026-05-06 14:37 40.59973 112.00527 17288 ft 381 kts 47°
2026-05-06 14:37 40.61819 112.02913 16894 ft 364 kts 28°
2026-05-06 14:38 40.64022 112.04302 16668 ft 340 kts
2026-05-06 14:38 40.66288 112.04618 16412 ft 320 kts 349°
2026-05-06 14:38 40.68436 112.04122 16043 ft 311 kts 340°
2026-05-06 14:38 40.70500 112.03329 15647 ft 307 kts 336°
2026-05-06 14:39 40.72503 112.02388 15268 ft 304 kts 335°
2026-05-06 14:39 40.74474 112.01456 15088 ft 296 kts 335°
2026-05-06 14:39 40.76426 112.00714 14973 ft 292 kts 347°
2026-05-06 14:39 40.78439 112.00925 14887 ft 295 kts
2026-05-06 14:40 40.80265 112.02215 14758 ft 303 kts 33°
2026-05-06 14:40 40.81609 112.04378 14533 ft 312 kts 56°
2026-05-06 14:40 40.82271 112.07126 14289 ft 319 kts 78°
2026-05-06 14:40 40.82271 112.10141 14052 ft 318 kts 86°
2026-05-06 14:41 40.82495 112.13020 13744 ft 313 kts 74°
2026-05-06 14:41 40.83056 112.15767 13480 ft 308 kts 67°
2026-05-06 14:41 40.83838 112.18375 13219 ft 303 kts 60°
2026-05-06 14:41 40.84645 112.20942 12965 ft 303 kts 65°
2026-05-06 14:42 40.85265 112.23609 12690 ft 303 kts 70°
2026-05-06 14:42 40.85838 112.26274 12411 ft 301 kts 69°
2026-05-06 14:42 40.86459 112.28903 12135 ft 297 kts 66°
2026-05-06 14:42 40.87461 112.31193 11857 ft 282 kts 40°
2026-05-06 14:43 40.89015 112.32593 11722 ft 263 kts 18°
2026-05-06 14:43 40.90722 112.33105 11598 ft 244 kts 355°
2026-05-06 14:43 40.92363 112.32810 11408 ft 235 kts 343°
2026-05-06 14:43 40.93931 112.32249 11141 ft 233 kts 339°
2026-05-06 14:44 40.95441 112.31516 10861 ft 230 kts 327°
2026-05-06 14:44 40.96472 112.29959 10532 ft 231 kts 292°
2026-05-06 14:44 40.96511 112.27826 10197 ft 244 kts 257°
2026-05-06 14:45 40.94754 112.23839 9495 ft 251 kts 252°
2026-05-06 14:45 40.94161 112.21682 9204 ft 248 kts 258°
2026-05-06 14:45 40.93661 112.19498 8892 ft 249 kts 260°
2026-05-06 14:45 40.93163 112.17335 8570 ft 250 kts 259°
2026-05-06 14:46 40.92651 112.15126 8242 ft 252 kts 259°
2026-05-06 14:46 40.92125 112.12876 7902 ft 254 kts 259°
2026-05-06 14:46 40.91609 112.10674 7569 ft 255 kts 258°
2026-05-06 14:46 40.91082 112.08436 7251 ft 255 kts 258°
2026-05-06 14:47 40.90557 112.06197 6903 ft 255 kts 258°
2026-05-06 14:47 40.90038 112.03986 6583 ft 246 kts 258°
2026-05-06 14:47 40.89542 112.01881 6243 ft 234 kts 258°
2026-05-06 14:47 40.89068 111.99867 5931 ft 224 kts 257°
2026-05-06 14:48 40.88616 111.97944 5644 ft 212 kts 258°
2026-05-06 14:48 40.88191 111.96143 5365 ft 198 kts 258°
2026-05-06 14:48 40.87798 111.94470 5119 ft 185 kts 258°
2026-05-06 14:48 40.87430 111.92905 4873 ft 173 kts 258°
2026-05-06 14:49 40.87084 111.91438 4645 ft 163 kts 259°
2026-05-06 14:49 40.86750 111.90017 4434 ft 160 kts 259°
2026-05-06 14:49 40.86423 111.88643 4227 ft 156 kts 259°
2026-05-06 14:49 40.86101 111.87285 4023 ft 156 kts 259°
2026-05-06 14:50 40.85775 111.85899 3812 ft 156 kts 258°
2026-05-06 14:50 40.85457 111.84536 3619 ft 155 kts 257°
2026-05-06 14:50 40.85149 111.83222 3565 ft 140 kts 256°
2026-05-06 14:50 40.84941 111.82330 3564 ft 69 kts 252°
2026-05-06 14:51 40.84834 111.81875 3564 ft 46 kts 251°
2026-05-06 14:51 40.84753 111.81500 3564 ft 37 kts 266°
2026-05-06 14:51 40.84777 111.81263 3564 ft 16 kts 281°
2026-05-06 14:51 40.84791 111.81169 3564 ft 4 kts 282°
2026-05-06 14:52 40.84810 111.81143 3564 ft 4 kts 344°
2026-05-06 14:52 40.84812 111.81143 3564 ft 0 kts 345°
2026-05-06 14:52 40.84815 111.81141 3564 ft 4 kts 346°
2026-05-06 14:53 40.84851 111.81131 3564 ft 5 kts 348°
2026-05-06 14:53 40.84871 111.81126 3564 ft 5 kts 349°
2026-05-06 14:53 40.84918 111.81113 3564 ft 8 kts 346°
2026-05-06 14:53 40.84958 111.81098 3564 ft 4 kts 344°
2026-05-06 14:54 40.84981 111.81090 3564 ft 3 kts 344°
2026-05-06 14:54 40.85002 111.81082 3564 ft 3 kts 344°
2026-05-06 14:54 40.85032 111.81071 3564 ft 5 kts 344°
2026-05-06 14:54 40.85063 111.81059 3564 ft 5 kts 343°
2026-05-06 14:55 40.85092 111.81059 3564 ft 4 kts 31°
2026-05-06 14:55 40.85116 111.81099 3564 ft 6 kts 69°
2026-05-06 14:55 40.85129 111.81153 3564 ft 7 kts 73°
2026-05-06 14:55 40.85144 111.81219 3564 ft 6 kts 70°
2026-05-06 14:56 40.85166 111.81228 3564 ft 2 kts 339°
2026-05-06 14:56 40.85187 111.81218 3564 ft 4 kts 339°
2026-05-06 14:56 40.85210 111.81208 3564 ft 3 kts 342°
2026-05-06 14:56 40.85218 111.81204 3564 ft 0 kts 342°
2026-05-06 14:57 40.85220 111.81204 3564 ft 1 kts 342°